Tracking 19562 objects as of 24-Mar-2019
HD Live streaming from Space Station
objects crossing your sky now

COSMOS 1269

Track COSMOS 1269 now!
10-day predictions
COSMOS 1269 is classified as:


NORAD ID: 12442
Int'l Code: 1981-041A
Perigee: 783.7 km
Apogee: 799.3 km
Inclination: 74.1 °
Period: 100.5 minutes
Semi major axis: 7162 km
RCS: 2.2283 m2 (large)
Launch date: May 7, 1981
Source: Commonwealth of Independent States (former USSR) (CIS)
Launch site: PLESETSK MISSILE AND SPACE COMPLEX (PKMTR)
aabbcc
Your satellite tracking list
Your tracking list is empty




NASA's NSSDC Master Catalog

Two Line Element Set (TLE):
1 12442U 81041A   19081.61802404 +.00000035 +00000-0 +22516-4 0  9999
2 12442 074.0541 145.7663 0010899 303.7753 056.2359 14.32199340977439
Source of the keplerian elements: AFSPC